Location: Little Langford
(51.1167°N, 1.9167°W)
Time: 02:10:43
(UTC+00:00)

Daily predictions for brighter satellites

Satellite Brightness Start Highest point End
(mag) Time Altitude Azimuth Time Altitude Azimuth Time Altitude Azimuth
Cosmos 1461 2.8 00:00:49 10° NW 00:04:57 73° SW 00:06:31 37° SSE
Cosmos 1553 Rocket 4.1 00:03:21 28° SSE 00:06:37 64° E 00:12:46 10° NNE
Cosmos 1867 4.0 00:05:01 31° S 00:07:06 45° ESE 00:12:18 10° NE
Cosmos 2221 Rocket 3.8 00:06:47 35° SSE 00:08:25 58° E 00:12:46 10° NNE
Cosmos 1674 Rocket 4.3 00:06:55 29° SE 00:08:31 40° E 00:12:35 10° NNE
Cosmos 1238 Rocket 2.3 00:08:43 10° N 00:11:39 62° E 00:12:06 53° SE
Cosmos 1674 2.8 00:10:51 43° SSE 00:11:51 62° E 00:15:34 10° NNE
ATLAS CENTAUR R/B 2.5 00:08:29 10° NW 00:12:54 35° WSW 00:13:59 31° SSW
SL-19 R/B 3.5 00:17:33 63° SSW 00:17:56 75° WSW 00:20:51 10° NNW
ATLAS 5 CENTAUR R/B 3.4 00:05:26 10° NW 00:21:28 77° SW 00:24:40 22° SE
Cosmos 468 4.5 00:16:14 10° NNW 00:21:31 86° ENE 00:24:27 27° SSE
Cosmos 2322 Rocket 3.6 00:16:28 10° WSW 00:21:35 35° NW 00:26:44 10° NNE
CZ-4C R/B 3.0 00:14:33 10° NW 00:21:37 68° SW 00:27:52 19° SSE
Cosmos 2333 Rocket 2.3 00:19:42 23° SW 00:23:22 73° WNW 00:29:04 10° NNE
Cosmos 2322 3.7 00:20:48 27° SSW 00:24:02 89° ESE 00:29:50 10° NNE
Cosmos 1378 Rocket 3.9 00:22:19 33° SSE 00:24:03 55° E 00:28:24 10° NNE
Cosmos 1844 Rocket 4.3 00:20:39 10° NW 00:24:35 20° W 00:26:32 17° SW
USA 215 3.3 00:20:56 10° ENE 00:27:31 86° NNW 00:34:06 10° WSW
NOSS 0 Rocket 4.5 00:29:22 26° SSE 00:32:27 46° ESE 00:38:23 10° NE
PSLV R/B 3.6 00:28:43 10° NNE 00:33:06 87° WNW 00:35:01 34° SSW
Meteor 2-10 Rocket 4.4 00:31:27 10° N 00:37:01 49° ENE 00:41:16 16° SE
Cosmos 2151 Rocket 3.8 00:34:54 10° NNW 00:39:14 57° W 00:40:53 34° SSW
ALOS 2 4.3 00:38:34 17° WSW 00:40:00 20° W 00:43:17 10° NW
Cosmos 1745 Rocket 3.9 00:34:36 10° N 00:40:53 86° W 00:44:35 26° S
Cosmos 839 Rocket 4.1 00:35:48 10° NW 00:42:07 84° SW 00:49:12 11° SE
Okean 2 Rocket 3.6 00:39:10 10° NNW 00:43:31 47° W 00:45:14 31° SW
Okean 2 3.7 00:42:13 33° SW 00:43:48 55° WNW 00:47:51 10° N
USA 308 4.0 00:44:46 25° SE 00:44:57 26° SE 00:48:25 10° E
ADEOS Rocket 3.7 00:42:18 24° SW 00:44:57 37° W 00:50:29 10° NNW
Cosmos 2219 Rocket 2.5 00:42:56 21° SW 00:46:38 64° WNW 00:52:13 10° NNE
Meteor 2-12 Rocket 4.4 00:42:21 10° N 00:48:29 81° E 00:52:26 23° SSE
Meteor 1-16 Rocket 4.3 00:42:46 10° NNW 00:48:43 73° W 00:52:02 27° S
Cosmos 1707 4.1 00:50:02 21° WSW 00:51:42 30° WNW 00:55:09 10° N
GP-B 3.6 00:51:20 10° N 00:55:42 52° E 00:58:07 24° SSE
CZ-2D R/B 3.6 00:54:11 10° NE 00:58:45 27° E 01:02:28 13° SE
Cosmos 1300 2.7 00:56:01 10° N 00:59:50 78° E 01:01:27 33° SSE
Lacrosse 5 3.6 00:58:31 16° SE 00:59:55 18° SE 01:03:16 10° E
ASTEX 1 4.0 00:57:53 10° N 01:02:33 45° WNW 01:05:07 24° SW
ERS-2 4.5 01:00:50 10° NNW 01:03:07 16° WNW 01:05:21 10° W
SL-14 R/B 3.2 01:02:27 36° S 01:03:56 85° E 01:07:50 10° NNE
USA 267 3.9 01:02:14 24° S 01:04:58 33° SW 01:10:49 10° WNW
NOSS 2-2 (C) 4.4 01:02:41 10° NW 01:07:33 53° SW 01:12:46 16° SSE
USA 305 3.4 01:07:08 33° S 01:08:13 40° SE 01:12:08 10° ENE
Cosmos 371 Rocket 3.3 01:06:03 30° SSW 01:08:30 78° ESE 01:13:23 10° NNE
Cosmos 2150 Rocket 3.9 01:06:08 28° SSW 01:08:54 82° ESE 01:14:05 10° NNE
USA 229 DEB 4.1 01:01:50 10° NW 01:08:56 55° WSW 01:15:06 16° SSE
USA 229 4.1 01:01:55 10° NW 01:09:02 55° WSW 01:15:15 16° SSE
Cosmos 2237 Rocket 2.3 01:11:28 26° S 01:14:43 67° ESE 01:20:24 10° NE
COSMOS 2428 3.2 01:12:17 19° SW 01:16:21 55° NW 01:21:58 10° NNE
Cosmos 1437 Rocket 3.5 01:14:46 10° NNW 01:18:13 35° W 01:19:16 29° SW
Cosmos 405 Rocket 3.4 01:18:03 27° SW 01:19:35 42° WNW 01:23:13 10° N
Cosmos 304 Rocket 3.9 01:17:17 27° S 01:19:49 64° ESE 01:24:37 10° NNE
SL-16 R/B 3.1 01:15:36 10° SE 01:21:40 59° ENE 01:27:48 10° N
Okean 1 Rocket 3.7 01:18:03 10° NNW 01:22:13 41° W 01:24:05 27° SW
Lacrosse 5 rocket 3.4 01:21:54 11° SE 01:22:48 12° ESE 01:24:27 10° E
Cosmos 1125 Rocket 3.5 01:20:01 25° SSW 01:23:03 77° WNW 01:28:18 10° NNE
Cosmos 1953 3.2 01:21:21 10° NNW 01:25:02 35° W 01:26:26 27° SW
SME Rocket 3.2 01:24:34 23° SSE 01:27:07 83° WSW 01:32:31 10° NNW
Cosmos 2360 Rocket 4.2 01:22:50 10° W 01:27:13 23° NW 01:31:38 10° NNE
Resurs 1-4 Rocket 2.8 01:23:05 10° NNE 01:28:10 46° E 01:31:56 17° SSE
Cosmos 2297 4.2 01:25:56 10° NNW 01:31:40 62° NE 01:37:21 10° SE
Cosmos 1943 Rocket 2.4 01:26:02 10° NNW 01:31:45 74° ENE 01:37:25 10° SE
USA 290 4.1 01:32:43 15° W 01:34:26 22° NW 01:37:05 10° N
Cosmos 1709 Rocket 4.2 01:29:19 10° NNW 01:35:19 57° W 01:39:17 21° SSW
MOZ.5/SAFIR/RUBIN 5/SL-8 3.9 01:33:59 24° S 01:36:42 58° W 01:41:25 10° NNW
Cosmos 1626 4.1 01:36:40 14° WSW 01:38:27 19° WNW 01:41:07 10° NNW
Cosmos 2315 Rocket 4.1 01:35:34 22° SSW 01:39:56 76° WNW 01:46:21 10° N
Cosmos 2184 Rocket 4.3 01:35:57 10° N 01:42:13 67° ENE 01:48:23 10° SSE
Cosmos 2278 Rocket 3.0 01:37:41 10° NW 01:42:41 32° WSW 01:45:23 21° SSW
EO 1 Delta rocket 4.0 01:38:17 10° N 01:42:52 64° WNW 01:46:02 22° SSW
ADEOS II 3.3 01:39:11 10° NNE 01:44:01 35° E 01:48:40 11° SSE
IDEFIX/ARIANE 42P 4.0 01:40:12 10° NNE 01:44:51 31° E 01:49:29 10° SSE
USA 306 2.8 01:47:34 22° SW 01:50:06 67° SSE 01:54:16 10° ENE
Cosmos 1867 4.4 01:45:39 11° WSW 01:50:44 46° NW 01:56:03 10° NE
Cosmos 2084 Rocket 3.7 01:49:15 25° S 01:51:06 45° SE 01:54:44 10° NE
Thor Agena Rocket 3.7 01:47:13 10° NNE 01:52:28 69° WNW 01:56:09 20° SSW
USA 307 2.9 01:51:04 22° SW 01:53:35 64° SSE 01:57:45 10° ENE
ERBS 2.0 01:54:54 31° SW 01:56:09 64° SE 01:59:11 10° ENE
NPP 3.9 01:50:53 10° NNE 01:56:16 64° ESE 02:00:36 16° S
Cosmos 2369 Rocket 3.1 01:51:27 10° NNW 01:56:56 51° NE 02:02:22 10° SE
Gblst 52 Del rocket 4.2 01:51:29 10° W 01:57:27 85° N 02:02:59 10° E
Cosmos 1455 Rocket 3.5 01:56:17 10° NNW 02:00:33 46° W 02:03:14 21° SSW
Cosmos 614 Rocket 4.2 01:55:35 10° NNW 02:00:47 72° ENE 02:06:00 10° SSE
Cosmos 2228 4.5 01:56:58 10° N 02:01:03 36° ENE 02:05:04 10° SE
CZ-4 R/B 3.8 01:56:36 10° NNE 02:01:18 83° ESE 02:04:41 19° SSW
SL-16 R/B 2.6 01:58:00 17° S 02:02:15 56° ESE 02:07:48 10° NE
Cosmos 2251 Rocket 4.5 01:57:34 10° NNW 02:02:42 50° ENE 02:07:49 10° SE
NOSS 7 (H) 4.4 02:01:20 10° NW 02:04:34 73° SW 02:08:48 10° SE
Cosmos 1980 4.1 02:02:27 16° SW 02:06:52 55° NW 02:12:27 10° NNE
Meteor 1-28 Rocket 3.6 02:03:54 10° SSE 02:07:36 64° ENE 02:11:18 10° N
Cosmos 2333 Rocket 4.3 02:04:28 10° W 02:08:40 21° NW 02:12:54 10° NNE
CZ-4C R/B 4.3 02:04:18 10° WNW 02:09:26 20° WSW 02:12:59 15° SW
COSMOS 2455 3.9 02:04:48 12° S 02:09:44 37° ESE 02:15:14 10° NE
USA 215 4.0 02:03:57 10° ENE 02:10:18 56° N 02:16:40 10° W
Cosmos 332 Rocket 4.1 02:07:03 19° SW 02:10:27 59° WNW 02:15:13 10° NNE
NOSS 3 (A) 2.9 02:10:22 74° W 02:10:27 79° NW 02:12:14 10° NE
Cosmos 1536 Rocket 4.1 02:08:03 12° S 02:11:57 54° E 02:16:14 10° NNE
Cosmos 1975 Rocket 3.8 02:16:47 18° SW 02:19:47 42° WNW 02:24:03 10° N
Nadezhda 1 Rocket 4.3 02:15:10 10° S 02:21:28 70° E 02:27:44 10° NNE
Meteor 1-24 Rocket 3.7 02:17:04 16° SSW 02:21:33 70° WNW 02:27:00 10° N
UNK 3.8 02:19:09 12° S 02:23:17 59° WSW 02:27:53 10° NNW
USA 308 2.8 02:20:30 13° WSW 02:24:11 87° SSE 02:28:24 10° ENE
Cosmos 1455 2.2 02:20:46 10° NNW 02:24:25 56° W 02:27:22 15° S
Cosmos 1025 Rocket 3.7 02:23:55 17° SW 02:26:58 42° WNW 02:31:05 10° N
MOS 1 Rocket 3.1 02:23:22 12° S 02:27:20 61° W 02:31:39 10° NNW
YAOGAN 11 4.3 02:23:44 12° S 02:27:48 56° W 02:32:16 10° NNW
BREEZE-M DEB (TANK) 4.5 02:23:41 10° W 02:27:49 80° S 02:47:20 10° E
Cosmos 1271 Rocket 2.7 02:24:24 10° NNW 02:28:14 89° E 02:32:05 10° SSE
Cosmos 2219 Rocket 4.3 02:27:52 10° WNW 02:31:44 19° NNW 02:35:38 10° NNE
Cosmos 1606 Rocket 4.5 02:27:59 10° N 02:32:18 49° ENE 02:36:34 10° SSE
CZ-2D R/B 2.5 02:33:50 10° N 02:39:06 54° WNW 02:43:47 13° SW
Lacrosse 5 2.0 02:37:42 13° SW 02:42:09 70° SE 02:47:15 10° ENE
Meteor 2-5 Rocket 4.4 02:38:06 13° SW 02:42:57 44° WNW 02:48:22 10° N
Helios 1B rocket 4.3 02:39:43 10° NE 02:43:11 26° E 02:46:36 10° SSE
Cosmos 2341 Rocket 4.4 02:38:38 10° N 02:45:02 70° ENE 02:51:25 10° SSE
USA 305 3.1 02:43:29 10° W 02:47:39 72° NNW 02:51:51 10° ENE
Cosmos 2154 Rocket 4.2 02:42:15 10° NNW 02:48:30 60° W 02:54:40 10° S
Cosmos 407 Rocket 3.9 02:45:23 10° NNW 02:50:44 69° ENE 02:55:59 10° SSE
SL-8 Rocket 4.5 02:45:27 10° N 02:51:46 66° ENE 02:58:03 10° SSE
SAR-Lupe-2 4.2 02:51:48 10° N 02:55:14 43° WNW 02:58:25 11° SW
AQUA 4.2 02:51:28 10° N 02:56:06 52° WNW 03:00:42 10° SW
Cosmos 1943 4.2 02:52:00 10° S 02:57:20 43° ESE 03:02:41 10° NE
Helios 1A 3.5 02:54:02 10° S 02:58:02 43° W 03:02:05 10° NNW
Genesis I 3.5 02:54:07 10° NW 02:58:13 78° NE 03:02:14 10° SE
Cosmos 2237 Rocket 3.6 02:54:16 10° WSW 02:59:15 30° NW 03:04:17 10° NNE
Lacrosse 5 rocket 1.4 02:57:25 11° SW 03:01:03 63° SE 03:05:10 10° ENE
Cosmos 1140 Rocket 3.6 02:56:24 10° NNW 03:01:42 85° ENE 03:06:57 10° SSE
SL-16 R/B 3.4 03:00:13 10° SSW 03:05:38 31° W 03:11:05 10° NNW
Resurs 1-4 Rocket 3.2 03:03:13 10° N 03:07:51 32° WNW 03:12:29 10° WSW
Lacrosse 4 Rocket 4.4 03:09:38 10° ESE 03:09:47 10° ESE 03:09:55 10° ESE
Cosmos 1892 Rocket 4.3 03:07:03 10° S 03:11:24 54° E 03:15:47 10° NNE
Cosmos 1726 Rocket 3.6 03:07:29 10° N 03:11:58 89° WSW 03:16:21 10° S
Cosmos 1943 Rocket 3.4 03:10:39 10° NW 03:14:56 22° WSW 03:19:10 10° SSW
Cosmos 1703 3.6 03:11:33 10° SSW 03:15:24 52° WNW 03:19:17 10° N
Cosmos 2263 4.2 03:10:23 10° NW 03:16:01 65° WSW 03:21:40 10° SSE
NOSS 3-3 (A) 4.4 03:14:28 10° SSW 03:20:01 55° SE 03:26:24 10° NE
NOSS 3-3 (C) 4.4 03:14:35 10° SSW 03:20:07 54° ESE 03:26:30 10° NE
ADEOS II 2.8 03:18:51 10° N 03:23:46 41° WNW 03:28:39 10° SW
IDEFIX/ARIANE 42P 3.1 03:19:34 10° N 03:24:37 47° WNW 03:29:38 10° SW
ARIANE 5 R/B 3.8 03:21:48 10° NNE 03:26:34 39° E 03:31:14 10° SSE
